Regional Weather Roundup
Issued by NWS

Home | Current Version | Previous Version | Text Only | Print | Product List | Glossary On
Versions: 1 2 3 4 5 6 7 8 9 10 11 12 13 14 15 16 17 18 19 20 21 22 23 24 25 26 27 28 29 30 31 32 33 34 35 36 37 38 39 40 41 42 43 44 45 46 47 48 49 50
000
ASUS44 KBMX 280710
RWRAL

ALABAMA REGIONAL WEATHER ROUNDUP
NATIONAL WEATHER SERVICE BIRMINGHAM AL
100 AM CST WED JAN 28 2015

NOTE: "FAIR" INDICATES FEW OR NO CLOUDS BELOW 12,000 FEET
WITH NO SIGNIFICANT WEATHER AND/OR OBSTRUCTIONS TO VISIBILITY.

THE REMARK "TC" DENOTES TEMPERATURE IN DEGREES CELSIUS.

ALZ001>011-014-016>018-020-280800-
NORTH ALABAMA

CITY           SKY/WX    TMP DP  RH WIND       PRES   REMARKS
MUSCLE SHOALS  CLEAR     35  26  69 NE3       30.23S
HUNTSVILLE     CLOUDY    38  27  64 NE13      30.19F WCI  30
DECATUR        CLEAR     33  26  75 N5        30.21S WCI  29
HALEYVILLE       N/A     31  26  81 CALM      30.22R
GADSDEN        CLOUDY    36  28  75 NW3       30.18R
$$

ALZ012-013-022-023-030>036-040>044-280800-
WEST CENTRAL ALABAMA

CITY           SKY/WX    TMP DP  RH WIND       PRES   REMARKS
TUSCALOOSA     CLEAR     38  31  76 N8        30.22R WCI  32
$$

ALZ015-024>027-033>036-040>044-280800-
CENTRAL ALABAMA

CITY           SKY/WX    TMP DP  RH WIND       PRES   REMARKS
BIRMINGHAM     CLEAR     32  27  81 N6        30.20R WCI  26
MONTGOMERY     CLEAR     41  31  67 N7        30.17R
SHELBY CO ARPT CLEAR     39  30  70 N5        30.18R
MAXWELL AFB    NOT AVBL
GREENVILLE     FAIR      41  31  67 NW5       30.15R
$$

ALZ019-021-028-029-037-038-045>048-280800-
EAST CENTRAL ALABAMA

CITY           SKY/WX    TMP DP  RH WIND       PRES   REMARKS
ANNISTON       CLOUDY    36  29  75 CALM      30.17S
ALEXANDER CITY CLEAR     39  30  69 N5        30.16R
AUBURN         CLEAR     36  27  69 N8        30.16R WCI  29
$$

ALZ051>064-280800-
SOUTHWEST ALABAMA

CITY           SKY/WX    TMP DP  RH WIND       PRES   REMARKS
MOBILE         CLEAR     44  34  67 N5        30.17S
BROOKLEY FIELD CLEAR     46  36  68 NW7       30.19R
EVERGREEN      CLEAR     36  34  92 NW3       30.16S
$$

ALZ049-050-065>069-280800-
SOUTHEAST ALABAMA

CITY           SKY/WX    TMP DP  RH WIND       PRES   REMARKS
DOTHAN         CLEAR     39  32  76 CALM      30.16R
OZARK          NOT AVBL
TROY           CLEAR     32  30  92 CALM      30.15S
EUFAULA        FAIR      35  29  78 CALM      30.14R
$$


USA.gov is the U.S. government's official web portal to all federal, state and local government web resources and services.